TimeEDT,TemperatureF,Dew PointF,Humidity,Sea Level PressureIn,VisibilityMPH,Wind Direction,Wind SpeedMPH,Gust SpeedMPH,PrecipitationIn,Events,Conditions,WindDirDegrees,DateUTC
12:15 AM,33.1,31.8,95,30.10,10.0,Calm,Calm,-,N/A,,Clear,0,2013-10-28 04:15:00
12:35 AM,32.5,31.6,96,30.10,10.0,Calm,Calm,-,N/A,,Clear,0,2013-10-28 04:35:00
12:55 AM,32.0,30.6,94,30.10,10.0,Calm,Calm,-,N/A,,Clear,0,2013-10-28 04:55:00
1:15 AM,30.7,29.3,94,30.10,10.0,Calm,Calm,-,N/A,,Clear,0,2013-10-28 05:15:00
1:35 AM,30.4,29.3,96,30.11,10.0,North,-9999.0,-,N/A,,Clear,0,2013-10-28 05:35:00
1:55 AM,30.0,29.1,96,30.11,10.0,Calm,Calm,-,N/A,,Clear,0,2013-10-28 05:55:00
2:15 AM,31.1,29.8,95,30.11,10.0,Calm,Calm,-,N/A,,Clear,0,2013-10-28 06:15:00
2:35 AM,30.2,29.3,96,30.11,10.0,Calm,Calm,-,N/A,,Clear,0,2013-10-28 06:35:00
2:55 AM,30.4,29.1,95,30.12,10.0,Calm,Calm,-,N/A,,Clear,0,2013-10-28 06:55:00
3:15 AM,30.0,27.9,92,30.13,10.0,Calm,Calm,-,N/A,,Clear,0,2013-10-28 07:15:00
3:35 AM,29.3,28.2,96,30.13,10.0,North,-9999.0,-,N/A,,Clear,0,2013-10-28 07:35:00
3:55 AM,29.8,28.8,96,30.13,10.0,NNW,3.5,-,N/A,,Clear,340,2013-10-28 07:55:00
4:15 AM,31.8,30.4,94,30.13,10.0,Calm,Calm,-,N/A,,Clear,0,2013-10-28 08:15:00
4:35 AM,31.8,30.4,94,30.14,10.0,Calm,Calm,-,N/A,,Clear,0,2013-10-28 08:35:00
4:55 AM,29.7,27.1,90,30.15,10.0,Calm,Calm,-,N/A,,Clear,0,2013-10-28 08:55:00
5:15 AM,29.5,28.6,96,30.16,10.0,Calm,Calm,-,N/A,,Clear,0,2013-10-28 09:15:00
5:35 AM,29.8,28.4,94,30.16,10.0,North,-9999.0,-,N/A,,Clear,0,2013-10-28 09:35:00
5:55 AM,28.9,27.3,94,30.17,10.0,North,-9999.0,-,N/A,,Clear,0,2013-10-28 09:55:00
6:15 AM,28.9,27.9,96,30.17,10.0,Calm,Calm,-,N/A,,Clear,0,2013-10-28 10:15:00
6:35 AM,28.9,28.2,97,30.18,10.0,Calm,Calm,-,N/A,,Clear,0,2013-10-28 10:35:00
6:55 AM,28.8,27.9,96,30.18,10.0,Calm,Calm,-,N/A,,Clear,0,2013-10-28 10:55:00
7:15 AM,28.0,27.1,96,30.19,10.0,Calm,Calm,-,N/A,,Clear,0,2013-10-28 11:15:00
7:24 AM,26.6,26.6,100,30.19,10.0,South,3.5,-,N/A,,Clear,190,2013-10-28 11:24:00
7:50 AM,26.6,26.6,100,30.19,10.0,Calm,Calm,-,N/A,,Clear,0,2013-10-28 11:50:00
8:50 AM,30.2,28.4,93,30.21,10.0,Calm,Calm,-,N/A,,Clear,0,2013-10-28 12:50:00
9:50 AM,42.8,37.4,81,30.23,10.0,SSE,3.5,-,N/A,,Clear,150,2013-10-28 13:50:00
10:50 AM,48.2,37.4,66,30.24,10.0,Calm,Calm,-,N/A,,Clear,0,2013-10-28 14:50:00
11:50 AM,53.6,35.6,51,30.25,10.0,SSE,5.8,-,N/A,,Clear,160,2013-10-28 15:50:00
12:58 PM,55.4,35.6,47,30.25,10.0,Calm,Calm,-,N/A,,Clear,0,2013-10-28 16:58:00
2:50 PM,57.2,35.6,44,30.23,10.0,Calm,Calm,-,N/A,,Clear,0,2013-10-28 18:50:00
7:35 PM,45.3,35.8,69,30.26,10.0,Calm,Calm,-,N/A,,Clear,0,2013-10-28 23:35:00
7:55 PM,43.0,35.4,75,30.26,10.0,Calm,Calm,-,N/A,,Clear,0,2013-10-28 23:55:00
8:15 PM,42.1,35.8,78,30.26,10.0,Calm,Calm,-,N/A,,Clear,0,2013-10-29 00:15:00
8:35 PM,41.7,35.6,79,30.26,10.0,Calm,Calm,-,N/A,,Clear,0,2013-10-29 00:35:00
8:55 PM,42.4,35.6,77,30.27,10.0,North,3.5,-,N/A,,Clear,360,2013-10-29 00:55:00
9:15 PM,41.7,35.1,77,30.27,7.0,North,3.5,-,N/A,,Clear,10,2013-10-29 01:15:00
9:35 PM,40.8,34.0,77,30.27,10.0,North,3.5,-,N/A,,Clear,10,2013-10-29 01:35:00
9:55 PM,42.1,34.0,73,30.28,10.0,North,4.6,-,N/A,,Clear,360,2013-10-29 01:55:00
10:15 PM,43.3,33.4,68,30.29,10.0,North,6.9,-,N/A,,Clear,360,2013-10-29 02:15:00
10:35 PM,43.0,33.8,70,30.29,10.0,North,5.8,-,N/A,,Clear,10,2013-10-29 02:35:00
10:55 PM,42.8,34.2,72,30.30,10.0,NNE,5.8,-,N/A,,Clear,20,2013-10-29 02:55:00
11:15 PM,42.4,34.9,75,30.30,10.0,NNE,5.8,-,N/A,,Clear,20,2013-10-29 03:15:00
11:35 PM,41.9,35.4,78,30.30,10.0,NNE,4.6,-,N/A,,Clear,20,2013-10-29 03:35:00
11:55 PM,40.8,35.6,82,30.31,10.0,North,5.8,-,N/A,,Clear,10,2013-10-29 03:55:00